Wind_Speed
73 73 74 74 75 76 76 77 77 77 77 77 77 77 77 77 76 76 76 76 76 75 75 75 75 75 74 74 73 73 72 72 73 73 74 76 77 78 80 82 83 84 85 86 87 87 88 88 88 88 89 89 89 89 89 88 88 87 86 86 87 89 90 92 94 94 92 90 89 90 92 92 91 90 91 93 94 95 95 93 93 94 95 95 94 94 94 94
73 74 74 74 74 75 75 76 76 77 77 77 77 77 76 76 76 76 76 76 76 76 76 75 75 75 74 74 73 73 72 72 72 71 72 73 73 75 76 77 79 80 82 82 83 84 85 86 86 86 87 87 88 87 87 88 87 86 86 86 88 90 91 92 94 93 91 89 88 89 90 91 91 91 93 96 97 97 96 95 93 94 95 95 95 95 95 96
71 72 73 74 74 75 75 75 76 76 76 76 77 77 76 76 76 76 76 76 76 76 75 75 75 74 74 74 73 73 73 72 72 71 71 71 72 72 74 74 76 77 78 79 80 81 82 82 83 84 84 85 85 85 86 86 86 86 85 86 89 90 90 92 93 91 90 89 88 88 90 91 93 94 96 98 99 97 96 94 94 96 96 96 96 96 97 97
67 69 70 71 72 73 74 74 75 75 75 76 76 76 76 75 75 75 75 75 75 75 75 74 74 74 74 74 73 73 74 73 72 71 71 71 70 71 71 72 73 74 75 76 77 79 79 80 81 81 81 82 83 83 84 84 84 84 84 85 88 88 88 91 92 90 89 89 88 88 90 93 95 96 96 97 98 98 97 96 96 96 97 97 97 97 97 98
64 66 67 68 69 70 71 72 72 73 73 74 74 74 74 74 74 74 73 74 73 73 73 73 73 73 73 73 74 74 74 73 72 72 71 70 70 70 70 70 71 72 73 74 75 76 77 78 79 79 80 81 82 82 83 83 83 83 83 85 86 86 88 91 91 89 89 88 88 90 93 95 95 96 96 96 98 98 97 96 96 97 97 98 97 96 96 96
61 62 64 65 66 67 68 68 69 70 70 71 71 71 72 72 72 72 72 71 71 71 70 71 71 71 72 72 73 74 74 73 73 72 71 71 70 70 70 70 70 71 71 73 73 74 75 76 77 78 79 81 81 82 83 83 83 82 83 85 86 87 88 90 90 89 89 88 90 93 95 95 95 95 94 94 96 97 96 95 96 96 96 95 95 93 92 93
58 59 60 62 63 63 64 65 66 67 67 67 68 68 68 69 69 69 69 69 68 68 67 68 68 69 70 71 72 73 74 73 72 72 71 71 71 70 70 70 70 70 70 71 72 72 73 74 75 76 78 79 80 81 82 81 81 81 83 85 86 87 88 90 90 89 88 89 91 94 94 93 93 94 92 91 92 93 93 93 93 93 91 90 90 88 87 87
55 56 57 58 59 60 61 62 63 64 65 65 65 66 66 66 66 67 67 67 66 65 65 65 65 66 68 69 70 72 72 72 72 71 71 71 71 71 71 71 70 70 70 70 71 71 71 72 73 74 75 76 76 77 78 77 77 79 82 84 85 85 86 87 87 86 86 87 88 90 90 90 90 89 87 85 86 87 88 87 88 88 85 84 83 82 81 81
53 54 55 56 57 58 58 59 60 61 62 63 63 64 64 64 64 65 65 65 64 63 63 63 63 64 65 66 68 69 70 70 70 70 71 71 71 72 72 71 71 71 71 70 70 70 71 71 71 71 71 72 72 72 73 74 74 76 78 79 79 80 81 81 81 81 81 81 83 84 85 84 83 82 80 79 79 81 82 82 82 82 79 77 77 76 76 75
51 52 53 54 55 56 56 57 58 59 60 60 61 61 62 62 63 63 64 63 63 63 62 62 63 63 63 64 65 67 67 68 68 69 70 70 71 72 72 72 72 72 72 72 72 71 71 70 70 70 69 69 69 69 70 70 71 71 72 72 73 74 75 75 75 75 75 75 76 78 78 78 77 77 75 73 73 75 77 78 78 76 73 72 71 72 72 71
48 50 51 52 53 54 55 55 56 57 58 58 59 59 60 60 61 61 62 61 61 61 62 62 62 62 63 63 63 65 65 65 66 67 68 69 70 71 71 72 72 72 72 72 73 72 72 71 71 70 69 69 69 69 68 68 68 68 68 69 69 70 71 71 70 70 70 71 72 73 74 74 75 75 71 68 69 72 74 73 73 71 69 68 68 68 68 67
46 48 49 50 51 52 53 54 55 56 56 56 57 57 58 58 58 59 59 59 59 59 59 60 61 61 62 62 62 64 63 62 64 65 66 67 68 69 69 70 71 71 72 72 72 72 72 72 71 71 71 70 70 69 69 69 69 69 68 68 68 69 70 68 67 68 68 69 70 71 72 73 73 72 67 64 66 69 69 68 68 67 66 65 64 64 63 63
44 46 47 48 49 51 52 53 54 54 55 55 55 56 56 56 56 57 57 57 57 57 57 57 58 59 60 60 61 62 62 61 62 63 64 65 66 66 67 68 69 69 70 70 71 71 71 70 70 70 70 70 70 70 69 69 68 68 67 67 68 68 68 66 65 66 66 66 67 67 69 70 69 67 62 60 64 65 63 63 63 64 63 61 60 59 59 58
42 44 45 46 48 49 50 51 52 53 53 53 54 54 55 55 55 55 55 55 55 54 54 55 56 57 57 57 58 59 60 60 60 61 62 63 63 64 65 66 66 67 67 68 68 68 68 68 68 68 69 69 68 68 67 67 66 67 66 66 66 66 65 64 63 63 63 63 63 64 66 66 65 61 57 56 60 61 59 59 59 59 58 56 54 54 54 53
41 42 43 45 46 48 49 50 51 51 52 52 52 53 53 53 54 54 54 53 53 52 53 53 54 54 54 54 55 57 57 58 58 59 60 60 61 62 63 63 64 64 64 64 65 65 65 65 65 65 66 65 64 64 64 64 64 64 63 63 63 62 61 61 60 58 57 57 58 60 62 62 60 56 53 54 57 57 55 54 54 54 53 52 51 49 48 47
39 40 42 43 45 46 47 49 49 50 50 50 51 51 52 52 53 53 53 52 51 51 51 51 52 52 51 52 53 53 54 55 56 57 57 58 58 59 59 60 60 61 61 61 61 61 61 61 61 61 61 61 61 61 60 60 60 59 58 58 57 56 56 56 55 54 53 53 55 58 59 58 55 52 49 50 51 52 50 49 49 49 49 47 46 44 43 42
37 38 40 41 43 44 46 47 48 49 49 49 50 50 51 51 52 52 52 51 50 50 49 49 50 49 48 49 49 50 52 52 53 53 54 55 55 55 56 56 56 57 57 57 58 58 58 57 57 57 57 57 57 57 56 56 54 53 53 53 53 52 52 53 53 52 51 51 52 55 56 54 52 49 47 46 46 48 47 45 44 44 42 41 40 40 38 37
36 37 38 40 41 43 45 46 47 48 48 49 49 50 50 51 51 51 51 50 49 49 48 48 48 46 46 46 47 48 49 48 48 49 50 51 51 52 52 52 53 53 53 53 53 53 53 53 53 53 53 53 53 52 51 49 48 49 51 51 51 51 51 51 50 50 49 48 50 52 52 51 50 48 46 44 43 42 42 40 39 39 38 37 38 37 35 33
35 36 37 38 40 41 43 45 46 47 47 48 49 49 50 50 50 50 50 50 48 47 47 47 46 44 44 45 45 47 46 45 45 45 46 46 47 47 47 48 48 49 49 49 49 49 49 49 49 49 49 49 48 47 46 45 46 49 50 50 49 49 48 48 48 47 47 47 48 50 50 49 48 47 44 41 39 37 37 37 36 35 34 35 36 36 32 29
34 35 36 37 38 40 42 44 45 46 46 47 48 48 49 49 49 50 50 49 48 47 47 47 45 44 44 44 46 45 43 42 42 42 42 43 43 43 44 45 45 44 44 45 45 45 45 45 45 45 45 45 44 44 43 44 46 48 49 48 48 48 46 47 47 47 46 45 46 47 48 47 46 46 43 39 36 35 34 35 36 34 34 34 34 33 30 27
33 34 35 36 37 38 40 42 43 45 45 46 47 47 48 49 49 50 50 49 48 47 48 47 45 45 45 45 47 45 41 42 41 41 41 41 41 41 42 42 42 42 42 42 43 43 43 43 42 42 42 42 43 43 43 43 45 48 49 49 49 48 47 47 47 46 44 42 42 43 45 46 45 44 43 39 36 35 34 35 37 36 35 35 33 31 29 28
33 33 34 35 36 37 38 40 42 43 44 46 46 47 48 48 49 50 49 49 49 48 49 48 46 46 46 46 48 45 42 42 42 42 41 40 40 41 42 41 40 41 41 41 42 42 41 41 40 41 42 43 43 43 43 44 46 48 50 50 49 48 47 46 46 45 43 41 40 41 43 45 44 44 43 40 38 36 35 36 37 37 36 35 34 32 30 29
33 34 34 34 35 35 36 37 39 41 43 45 46 47 47 48 49 50 49 49 50 49 50 50 48 48 48 48 48 46 44 43 44 43 42 40 41 42 42 41 40 41 42 42 42 41 41 40 40 42 44 44 44 44 45 46 47 48 49 50 50 48 46 45 45 44 42 40 40 41 43 46 47 46 43 40 38 36 36 36 37 37 36 35 34 34 34 32
34 35 35 35 35 35 35 36 36 38 40 42 44 45 47 48 49 49 49 50 50 50 51 51 50 50 50 48 47 48 47 45 45 44 42 41 42 44 43 40 41 42 43 43 42 41 40 40 41 43 45 45 44 45 46 47 47 47 48 49 49 47 45 45 43 43 42 41 41 42 44 48 49 47 43 39 37 36 35 36 38 36 34 34 35 36 36 34
32 35 36 35 35 35 36 35 35 36 38 40 42 43 45 47 47 48 49 50 50 50 51 52 52 52 51 48 48 50 48 46 46 44 43 42 44 45 43 41 43 44 44 42 42 41 41 41 42 44 46 45 45 46 46 46 46 46 47 49 49 47 45 44 43 42 42 41 42 43 45 48 48 46 44 41 38 36 35 36 37 35 33 34 35 35 35 35
29 33 36 36 36 36 36 36 35 36 37 37 39 41 43 43 45 46 47 48 50 50 51 52 52 52 51 49 50 50 49 48 47 44 45 45 45 45 43 43 45 44 42 41 42 42 42 42 42 44 46 46 46 46 45 45 45 46 47 49 49 47 45 44 42 42 42 43 43 44 45 46 47 45 45 43 40 36 34 35 35 33 33 33 33 33 33 35
28 30 33 36 37 37 36 36 36 36 36 36 37 39 39 40 42 43 44 46 48 48 50 51 51 52 50 49 50 50 49 48 46 45 47 47 46 45 45 46 46 43 41 41 42 43 42 42 42 44 46 46 46 46 45 45 45 46 48 49 48 46 45 44 43 43 43 43 44 43 43 44 45 46 46 45 41 37 34 33 32 31 31 32 31 30 31 33
29 29 30 33 36 38 37 37 37 38 37 37 37 37 37 37 38 39 40 43 46 46 47 48 49 50 49 48 50 50 49 47 46 47 48 47 45 45 46 47 45 42 41 42 43 43 43 42 42 43 44 45 46 46 44 43 44 46 46 47 46 45 45 45 45 45 44 43 43 42 42 42 43 46 46 44 42 38 33 30 30 30 30 31 30 30 31 32
30 30 30 31 33 36 38 38 38 39 39 38 38 36 36 36 36 36 36 39 42 43 44 45 47 49 47 47 49 50 48 47 46 46 46 46 45 46 47 46 44 43 42 42 43 42 42 42 40 41 42 44 45 44 42 42 44 44 44 45 46 46 47 47 46 45 43 42 42 41 42 42 43 44 45 43 41 38 33 29 29 29 30 30 30 30 31 31
30 31 31 31 31 32 35 39 40 40 40 39 38 37 36 37 36 35 35 38 39 39 42 44 45 46 46 46 49 49 47 47 46 45 45 46 45 47 47 46 44 43 42 42 43 43 42 40 39 40 41 44 43 42 41 42 43 44 44 45 46 47 49 48 46 45 43 42 42 42 43 43 42 43 44 43 41 38 33 29 29 29 30 29 29 30 30 31
30 31 32 32 33 32 33 36 39 41 41 39 40 39 38 37 37 36 38 40 39 38 41 43 43 43 44 45 47 47 46 45 44 44 45 45 45 46 46 45 44 44 42 42 43 43 41 39 38 39 40 42 42 42 42 42 43 44 45 45 45 47 49 48 46 45 43 43 43 43 43 42 40 41 43 43 42 38 33 31 30 30 30 30 30 31 32 32
30 31 32 33 34 34 32 33 36 39 41 40 40 41 40 39 39 40 42 42 41 40 40 41 42 43 43 43 44 45 44 43 42 42 43 44 45 45 45 44 44 44 43 42 43 43 41 39 39 40 41 43 43 42 42 42 43 44 44 44 45 46 47 47 46 45 44 44 44 43 42 41 39 40 42 43 42 39 35 33 32 31 32 32 33 33 34 34
30 31 32 33 35 35 33 33 33 34 38 41 41 41 41 41 43 46 45 43 43 42 41 42 42 43 43 43 44 44 43 43 43 42 41 43 45 45 44 44 44 43 43 43 43 42 41 40 39 41 43 43 43 42 41 42 44 45 44 44 45 46 46 47 46 46 45 44 44 42 41 41 40 40 42 42 42 41 38 35 35 34 34 35 35 35 36 38
32 32 32 33 35 34 34 34 34 33 35 38 41 42 41 42 47 50 47 45 46 44 42 43 43 43 44 44 45 44 43 44 44 42 42 43 44 44 44 44 43 44 44 43 42 41 40 40 40 41 43 43 43 43 43 44 46 47 45 45 46 46 46 46 45 45 45 44 44 43 41 41 41 41 42 42 42 43 41 38 38 37 38 38 38 39 40 41
33 34 34 34 34 34 34 34 35 34 33 34 38 41 42 45 49 51 49 48 48 45 43 44 43 43 43 44 45 45 45 46 45 43 42 42 42 43 44 44 44 45 45 43 42 41 40 41 41 41 43 44 45 45 44 46 47 47 46 47 48 46 46 46 45 44 44 43 44 44 43 43 44 43 43 44 43 44 44 42 40 40 42 43 43 43 44 44
35 36 36 36 34 33 33 34 36 36 35 33 34 38 43 48 51 51 51 50 49 47 45 44 44 44 44 45 47 47 48 47 45 43 42 42 42 44 45 45 46 47 46 44 43 40 40 42 43 43 44 46 46 45 44 46 47 47 48 49 47 44 44 45 43 43 44 45 46 47 45 46 46 45 45 46 45 46 46 44 42 42 45 47 48 48 48 47
37 38 39 38 35 33 32 34 36 37 36 34 33 36 41 47 51 52 52 52 51 50 48 47 47 47 47 48 48 49 49 48 47 45 43 43 43 45 47 48 48 49 47 44 41 39 41 45 46 45 45 45 45 45 46 48 49 49 50 48 45 44 43 44 44 45 46 47 48 49 48 47 47 48 48 47 46 47 48 47 45 45 47 50 51 51 51 50
40 41 42 40 37 35 34 33 35 36 36 35 35 37 39 43 49 53 54 53 52 51 51 50 49 49 49 50 50 50 49 50 50 47 45 44 44 47 48 49 51 51 47 43 41 40 43 47 47 45 45 45 45 47 50 51 50 50 49 46 45 45 44 45 47 47 47 49 50 50 50 48 48 50 50 49 49 49 49 49 48 49 50 52 54 54 52 52
44 44 44 41 39 38 37 35 34 35 35 36 38 40 41 43 46 49 52 54 53 52 51 51 50 50 50 50 51 51 50 51 50 48 47 46 46 48 50 52 54 51 45 43 42 42 45 49 48 45 45 46 47 50 53 52 49 50 50 48 46 46 45 47 50 49 49 51 52 53 52 50 51 52 52 52 51 51 51 52 52 52 54 55 56 55 54 54
47 47 45 43 42 41 39 37 35 35 36 38 41 43 44 45 46 46 48 51 51 52 53 52 51 51 51 51 52 52 53 53 51 49 50 49 48 50 52 54 53 49 45 44 44 44 46 48 49 47 47 49 50 52 54 52 49 50 52 51 48 46 48 50 51 51 51 52 53 54 54 53 54 55 55 55 54 53 54 54 54 55 56 57 58 57 56 55
51 50 48 47 45 44 42 40 38 37 38 40 43 45 47 47 47 47 47 47 48 50 52 53 53 53 53 54 54 54 55 54 53 54 53 50 50 52 53 54 53 49 46 45 45 45 46 48 51 51 51 52 52 53 54 53 53 53 55 55 51 49 50 51 51 52 52 54 55 55 56 57 57 58 57 57 56 55 55 56 56 57 57 58 58 59 59 57
54 53 51 50 48 47 45 43 42 41 41 42 44 45 47 49 49 49 48 47 46 46 47 49 51 53 55 56 56 56 57 57 57 57 56 53 53 55 55 55 54 52 50 48 46 46 47 49 51 53 53 54 54 55 56 55 55 55 56 56 54 53 52 52 52 53 55 57 58 57 58 60 60 60 59 58 57 57 57 57 58 59 59 59 59 60 61 58
57 56 55 52 50 49 48 47 47 45 44 44 45 45 47 49 50 51 50 48 47 46 44 45 47 50 53 55 56 57 57 57 59 59 57 56 56 58 58 56 56 55 54 52 50 49 51 52 52 53 54 55 56 58 58 57 56 57 57 57 56 56 54 54 54 55 57 59 59 60 61 62 61 61 60 59 59 59 59 60 60 61 60 59 59 60 60 58
60 58 57 55 53 52 52 52 51 48 46 46 46 47 48 49 51 53 52 50 49 46 44 43 44 45 48 49 50 52 53 55 58 58 58 57 58 60 60 59 59 58 56 55 54 53 54 54 53 54 56 57 59 62 61 60 58 59 59 58 59 59 57 57 57 58 60 62 62 62 63 63 63 62 61 61 61 61 61 60 61 61 60 59 58 58 58 57
62 60 59 58 56 55 56 57 55 51 49 49 48 48 49 49 51 54 54 52 50 47 46 45 45 45 45 43 44 45 47 50 54 55 55 56 58 60 61 61 61 59 57 56 54 53 54 54 53 55 57 58 61 63 63 62 61 61 61 61 62 62 60 60 60 61 62 64 63 64 65 65 64 63 62 62 61 61 60 60 59 59 59 58 57 56 56 57
62 62 61 60 59 58 59 61 58 53 52 52 51 51 51 51 52 54 55 54 51 49 48 48 46 45 44 42 42 43 43 45 48 49 51 53 54 56 58 60 61 59 57 55 53 51 51 50 51 54 57 58 61 62 63 63 63 63 62 62 62 62 61 61 61 62 63 63 63 64 64 64 65 64 62 61 60 59 59 59 58 58 58 58 58 57 57 57
58 59 59 59 59 59 61 62 60 57 55 54 54 54 53 53 54 55 55 53 51 50 50 50 47 44 43 42 42 42 42 42 44 46 47 48 49 51 53 56 57 56 54 52 50 50 50 49 50 52 54 56 58 60 61 61 62 63 63 62 62 62 61 60 60 61 62 62 63 65 64 63 64 63 62 61 60 60 59 59 59 59 58 59 59 58 58 58
54 55 56 56 57 59 61 61 60 59 58 57 56 55 55 55 56 57 56 53 52 52 52 51 48 44 43 43 43 44 44 43 44 46 47 46 45 46 47 49 50 50 49 48 48 48 50 51 51 51 52 53 54 56 57 58 59 61 62 62 62 61 61 60 60 60 60 61 63 65 65 64 64 63 62 61 61 61 62 61 61 61 60 60 60 60 60 59
50 51 53 53 54 56 58 58 58 58 59 58 57 56 57 57 57 57 56 53 52 52 53 51 48 45 44 44 44 45 46 45 45 47 49 48 46 46 46 45 46 47 47 46 47 48 50 51 51 51 51 52 52 53 54 55 56 57 58 59 59 59 60 60 60 60 60 60 62 63 64 64 65 65 64 63 62 62 63 63 63 63 62 62 61 62 62 61
45 47 49 50 51 52 54 55 55 56 57 57 57 57 57 58 57 56 56 54 53 53 53 52 48 46 45 45 45 46 47 48 48 49 50 51 49 49 48 47 47 47 47 47 47 48 50 51 50 49 51 51 52 52 51 50 51 53 54 55 56 57 58 59 59 60 60 61 62 63 63 64 65 65 65 65 65 65 65 65 65 65 65 64 64 63 63 63
39 42 44 46 47 49 52 53 53 53 54 55 55 55 56 57 57 56 56 56 56 55 54 53 51 49 48 48 48 48 48 49 50 51 53 53 53 53 52 51 50 50 50 49 49 49 50 51 50 50 50 51 51 51 50 49 50 51 52 53 54 56 57 58 57 58 59 60 61 62 63 64 65 65 66 67 67 67 67 66 66 65 65 65 65 64 64 64
34 36 39 42 45 48 50 52 52 53 54 54 53 53 55 56 57 56 57 58 57 57 56 55 54 52 51 51 52 51 51 52 54 55 56 57 57 57 56 54 52 52 52 51 50 50 50 51 51 51 50 51 51 51 50 51 51 52 51 52 54 55 55 55 56 56 57 59 60 61 62 63 63 64 64 65 65 66 67 67 66 64 63 62 62 62 61 61
Wind_Direction
249 248 248 248 247 247 247 248 248 249 249 249 250 250 251 251 251 251 252 252 253 253 253 253 253 253 254 254 254 254 254 255 255 255 255 255 255 255 255 255 255 255 256 256 256 257 257 258 258 259 259 259 260 260 260 261 261 261 261 261 261 261 262 262 263 264 265 266 266 267 268 269 269 269 269 269 269 269 270 270 271 272 273 274 275 275 275 275
249 249 248 248 248 247 247 247 248 248 249 249 249 250 250 250 251 251 252 252 252 252 252 253 253 253 253 254 254 254 254 254 254 254 255 255 255 256 255 256 256 256 256 256 257 257 257 258 258 258 259 259 259 260 260 261 261 261 261 261 261 261 262 263 263 264 265 266 267 267 268 269 269 269 268 268 269 270 271 272 273 273 273 273 274 274 274 275
249 249 248 248 248 248 248 247 248 248 248 249 249 249 250 250 251 251 252 252 252 252 252 252 253 253 253 253 253 254 254 254 254 254 255 255 255 256 256 256 257 257 257 257 257 257 257 258 258 258 258 259 259 260 260 260 261 261 261 261 261 262 263 263 264 265 266 266 267 267 268 268 268 268 269 270 271 272 272 273 273 273 273 273 274 274 274 274
248 248 248 248 248 248 248 248 248 248 248 249 249 250 250 250 250 251 251 252 252 252 252 252 252 252 253 253 253 253 254 254 254 254 255 255 256 256 256 257 257 257 257 257 257 258 258 258 258 259 259 259 259 259 260 260 260 261 261 261 262 262 263 263 264 265 266 266 267 267 267 266 268 269 270 271 273 273 273 274 274 274 274 274 274 274 274 274
248 248 248 247 247 247 247 248 248 248 248 248 249 249 250 250 250 251 251 251 252 252 252 252 252 252 253 253 253 253 253 254 254 254 255 255 256 256 256 257 257 257 257 258 258 258 258 258 259 259 259 259 259 259 260 260 261 261 261 261 262 263 263 264 265 265 266 267 267 266 266 267 269 270 271 272 273 273 274 275 275 274 274 274 274 274 275 275
248 248 247 247 247 247 247 247 247 247 248 248 248 249 249 250 250 251 251 251 251 252 252 252 253 253 253 253 253 253 253 254 254 255 255 256 256 256 257 257 257 258 258 258 259 259 259 259 259 259 259 259 260 260 260 261 261 262 262 262 262 263 263 264 265 266 267 267 267 267 267 269 270 271 271 272 273 274 275 275 275 274 274 275 275 275 275 274
249 248 247 247 247 246 246 247 247 247 247 247 248 248 249 249 250 250 251 251 251 251 252 252 253 252 252 253 253 253 253 254 254 255 255 256 256 257 257 258 258 258 258 259 259 259 260 260 260 259 260 260 260 261 262 262 263 263 263 262 263 263 264 265 266 267 268 268 268 269 270 271 271 271 272 273 274 275 275 275 275 274 274 275 275 275 275 274
249 248 248 247 247 246 246 246 246 246 247 247 247 248 248 249 249 250 250 251 251 251 252 252 253 253 252 252 253 253 253 254 254 255 255 256 256 257 257 258 258 259 259 259 260 260 260 260 260 261 261 262 262 263 263 264 263 263 263 263 264 265 266 267 268 268 269 269 269 270 271 271 271 272 273 273 274 274 275 275 274 274 275 275 275 275 275 274
249 249 248 247 247 246 246 246 246 246 246 246 247 247 248 249 249 250 250 251 251 252 252 253 253 253 253 253 253 253 253 254 254 254 255 255 256 257 257 258 258 259 259 259 260 260 260 261 261 262 262 263 263 264 264 263 263 263 264 265 266 266 267 268 268 269 269 270 271 271 271 271 272 272 272 272 273 274 274 273 273 274 275 275 275 275 274 273
249 249 248 248 247 246 246 245 245 245 245 246 246 247 248 248 249 250 250 251 251 252 252 253 253 253 254 254 254 254 254 254 254 254 254 255 255 256 256 257 258 258 258 259 259 260 260 261 262 262 263 263 263 263 263 264 264 265 265 266 266 267 267 268 268 269 270 270 271 271 272 273 272 272 272 273 274 274 273 273 274 275 275 275 274 273 273 272
249 248 248 248 247 246 246 245 245 245 245 245 246 247 247 248 249 250 250 251 251 252 252 252 253 254 254 254 255 255 254 254 255 255 255 255 255 256 256 256 257 257 258 258 259 259 260 260 261 262 262 263 263 263 264 264 265 264 265 266 266 266 267 267 269 269 270 270 270 271 272 272 271 272 273 275 274 273 273 273 274 275 274 274 273 272 272 272
249 248 248 247 247 246 245 245 244 244 244 245 245 246 247 248 248 249 250 251 251 251 252 252 253 253 254 254 255 255 255 255 255 255 255 255 255 256 256 256 257 257 258 258 259 259 260 260 261 262 262 262 263 263 263 263 264 265 265 266 266 266 267 268 269 269 269 269 269 271 271 270 271 272 274 275 274 273 273 274 274 274 274 274 273 273 272 272
250 248 247 247 246 245 244 244 244 244 244 244 244 245 246 247 248 249 249 250 250 251 251 252 252 253 253 254 254 255 256 255 255 255 255 255 255 256 256 256 257 257 258 258 259 259 260 260 261 261 262 262 262 263 263 264 265 265 265 265 266 266 267 268 268 267 267 268 269 269 269 269 271 273 275 275 273 272 273 274 275 275 275 275 274 273 272 271
250 249 247 247 246 245 244 243 243 243 243 243 244 244 245 246 247 247 248 249 249 250 250 251 251 252 253 253 254 255 255 255 255 255 255 255 256 256 256 256 257 257 258 258 259 259 260 260 260 261 261 261 262 263 263 264 264 264 264 264 265 266 267 267 266 266 267 268 268 268 268 269 271 273 274 273 272 272 273 274 275 275 275 274 273 271 271 270
250 249 248 247 246 244 243 242 242 242 242 243 243 244 244 245 245 246 247 248 248 249 249 250 251 251 252 253 254 254 255 255 254 254 255 255 255 256 256 256 256 257 257 258 258 259 259 259 259 260 261 261 262 262 262 262 262 263 263 264 265 265 265 265 265 265 266 267 267 267 268 269 271 273 273 272 271 272 273 274 275 274 274 273 271 270 269 268
251 249 248 246 245 244 243 242 241 241 242 242 243 243 244 244 244 245 246 246 247 247 248 249 250 251 252 253 253 254 255 255 254 254 255 255 255 255 255 256 256 256 256 257 257 258 258 258 259 259 260 260 260 260 260 261 262 263 263 263 263 262 262 262 263 263 263 264 266 267 267 269 271 272 271 270 271 272 273 274 275 274 273 273 272 270 268 267
252 250 248 247 245 244 243 242 241 241 241 242 242 242 243 243 243 244 244 245 245 246 246 248 249 250 252 253 254 254 254 255 255 255 255 255 254 254 255 255 255 255 256 256 256 257 257 257 258 258 258 258 258 258 259 260 261 262 261 259 258 258 259 260 261 261 262 263 265 266 268 270 270 269 268 268 269 271 273 273 273 273 273 273 272 270 269 267
253 250 248 247 245 244 243 241 241 241 241 241 241 241 242 242 242 243 243 244 244 245 246 247 249 250 251 253 254 254 254 255 255 255 255 254 254 254 254 254 254 254 255 255 255 256 256 256 255 256 256 256 257 257 258 259 258 257 256 255 256 257 259 260 261 263 263 264 264 264 266 268 268 268 267 267 267 270 272 271 270 270 272 271 269 269 270 269
253 251 249 247 246 244 243 242 241 240 240 241 241 241 241 241 242 243 243 244 244 245 246 247 248 250 251 253 253 254 254 255 254 254 254 254 254 254 254 253 253 253 254 254 254 254 253 253 253 254 254 254 255 256 256 255 254 254 255 256 258 258 259 260 261 262 262 263 264 264 265 266 267 267 267 266 266 266 267 268 267 266 267 268 269 270 271 269
255 252 250 248 246 245 243 242 241 240 240 241 241 241 241 241 241 242 243 243 244 244 245 246 248 249 250 251 252 252 253 254 253 253 253 253 253 253 253 253 252 252 252 252 252 251 251 251 252 252 252 253 253 253 253 252 253 255 256 256 257 257 257 257 259 260 261 263 264 265 265 265 265 266 265 263 261 260 261 262 263 261 261 263 267 272 272 267
256 253 251 249 248 246 244 242 241 241 240 241 241 241 241 241 241 242 242 243 243 244 245 246 246 247 248 250 252 251 251 252 253 252 252 252 252 253 253 252 252 251 251 250 250 250 250 250 250 251 251 251 251 251 251 252 253 255 256 256 255 256 256 256 258 259 260 260 261 263 266 266 265 264 263 261 259 257 256 257 259 260 260 262 263 266 267 265
256 254 251 250 248 247 245 244 242 241 241 241 241 241 241 241 241 242 242 243 243 244 245 245 245 247 248 249 251 251 250 251 252 251 251 252 252 252 252 251 251 251 250 250 249 249 249 250 250 251 250 250 250 251 251 252 253 255 256 257 257 257 256 256 257 257 257 257 256 258 263 266 264 262 261 261 259 256 254 255 257 259 260 262 263 262 260 259
255 254 252 250 248 247 246 245 244 243 241 241 241 241 241 241 241 242 242 243 243 244 245 245 245 246 246 247 250 251 249 249 251 251 251 251 252 252 251 251 251 251 250 249 249 249 249 250 250 251 251 251 252 252 252 252 252 254 256 257 257 257 256 256 256 256 256 255 253 253 257 261 262 261 261 262 261 259 258 258 258 258 259 261 262 261 259 257
255 254 253 251 249 247 247 246 244 244 242 242 241 241 241 241 241 242 242 243 243 243 245 245 244 244 245 247 249 251 249 248 250 251 251 251 252 252 250 250 250 250 249 249 250 250 250 251 251 253 253 252 253 253 252 252 253 254 255 256 256 256 256 256 256 257 256 254 253 252 254 258 261 262 263 262 261 261 260 260 261 260 261 261 260 260 260 259
259 255 253 253 251 248 247 246 245 244 243 242 242 241 241 241 242 242 243 243 243 243 244 245 245 245 245 246 247 249 250 249 249 250 250 250 250 250 250 249 249 249 249 250 251 251 251 251 252 254 254 253 252 252 253 254 254 254 254 255 256 256 256 256 255 255 254 253 253 255 256 259 261 264 265 262 259 258 259 260 263 264 263 261 261 262 262 261
265 259 254 253 252 251 249 247 245 245 244 243 242 242 242 242 242 242 243 244 244 243 244 245 245 246 245 245 246 248 250 250 250 249 249 248 247 249 250 249 249 249 250 252 253 253 251 251 252 252 253 253 252 252 253 253 253 253 253 254 255 255 255 255 255 254 253 253 254 256 258 262 264 265 265 264 260 257 256 258 261 263 263 262 261 262 261 260
268 265 260 255 252 251 250 248 246 245 244 244 243 243 242 242 242 242 242 244 245 244 244 245 245 246 245 245 246 247 247 249 249 249 248 247 247 249 250 249 249 250 251 252 252 252 251 250 251 251 252 253 253 252 251 252 252 252 253 254 255 256 256 255 254 253 253 254 255 257 259 263 266 266 265 265 264 260 257 257 259 259 259 259 258 256 255 255
269 268 265 260 255 251 249 248 247 245 244 244 244 244 244 243 243 243 243 244 245 244 245 245 246 246 245 244 245 245 245 247 247 247 248 248 248 248 248 249 250 250 250 250 251 252 252 250 250 252 253 253 252 252 252 252 252 252 254 256 256 256 255 254 254 254 255 256 258 259 261 262 265 267 268 268 267 264 260 258 258 257 255 255 254 252 252 253
272 269 267 265 261 255 250 248 247 246 245 244 244 244 245 245 243 242 243 244 245 244 244 245 245 246 244 244 245 244 244 244 244 246 248 248 247 247 248 248 249 249 248 249 250 250 250 250 250 251 252 251 252 253 253 252 252 252 253 255 256 256 255 255 255 256 257 258 259 260 261 261 262 265 267 268 268 266 262 258 257 256 254 253 252 252 252 254
273 271 268 265 264 260 254 249 247 246 246 245 244 243 243 245 245 244 244 244 245 244 244 244 244 245 245 244 245 245 244 244 244 244 246 246 246 247 248 248 248 247 246 247 248 248 249 250 249 249 250 252 252 252 251 251 252 252 252 253 255 257 258 258 258 258 258 258 259 258 258 259 261 262 264 264 265 265 264 261 258 258 257 254 254 255 254 255
273 271 269 266 264 262 259 254 249 246 246 245 244 243 241 242 245 245 245 244 244 243 245 245 245 245 245 244 246 246 245 244 243 243 244 245 245 245 247 248 247 247 246 246 247 247 248 248 247 246 248 250 251 250 250 250 251 252 252 254 255 257 260 261 261 261 260 258 257 257 257 257 258 260 262 264 264 264 263 262 259 259 260 260 259 259 257 256
274 271 269 267 264 262 261 259 254 249 247 245 244 244 241 241 243 244 244 244 244 244 245 246 246 245 244 244 245 246 245 244 242 242 243 244 244 244 245 246 247 247 246 245 246 247 247 245 244 244 245 248 250 250 251 251 252 253 254 255 257 258 260 261 262 261 260 258 256 255 256 256 254 256 260 263 265 265 263 262 261 259 260 262 261 262 262 261
275 272 269 266 264 263 261 261 259 255 250 246 244 243 242 241 242 244 243 243 243 243 244 246 246 245 245 244 244 244 244 243 242 240 241 243 245 246 246 246 246 247 246 245 245 247 247 245 243 244 245 246 249 250 251 252 253 254 254 255 257 258 259 260 261 260 259 258 257 255 255 256 255 255 258 262 266 267 265 264 264 263 262 263 262 263 264 263
277 274 270 266 265 264 261 260 260 258 254 249 245 243 242 241 242 243 243 243 243 242 242 245 246 246 246 246 246 246 244 243 241 239 239 242 245 247 247 247 247 246 246 245 245 246 247 246 244 245 248 249 249 250 250 251 253 255 255 255 256 256 258 258 258 259 258 257 258 257 256 257 257 256 258 261 264 267 268 267 268 268 268 266 265 264 263 262
276 275 272 268 265 263 262 260 259 258 256 253 249 244 241 241 242 243 243 243 244 243 241 243 246 247 247 247 248 248 246 244 242 239 239 242 246 248 249 249 248 248 247 246 246 246 246 248 247 246 248 251 251 250 251 252 254 256 257 255 254 255 256 257 257 257 258 257 258 258 257 257 258 258 259 261 263 267 269 270 271 273 274 272 270 267 266 264
274 274 273 270 267 264 262 260 259 257 255 254 253 247 242 241 242 243 243 243 244 244 243 243 244 246 246 246 246 247 247 246 243 240 239 241 245 248 249 249 249 249 248 246 246 246 248 249 249 248 248 250 252 253 253 255 255 255 255 255 256 256 257 258 257 257 257 257 257 258 257 257 259 260 261 262 265 267 269 272 274 275 275 274 273 272 270 268
272 271 271 270 269 267 263 260 258 257 256 254 253 250 245 243 242 243 243 242 242 243 242 242 242 242 243 244 244 245 246 248 247 243 239 239 242 247 249 249 249 248 248 248 248 248 250 251 251 250 250 251 253 255 255 254 254 254 255 256 258 258 258 259 258 257 257 257 257 258 258 259 261 262 263 265 266 267 270 272 274 273 272 273 273 273 272 272
270 269 269 269 270 268 264 261 259 258 256 254 252 250 248 245 243 243 243 242 242 242 241 242 242 242 244 245 245 245 246 247 248 247 244 242 243 246 249 250 250 249 248 249 249 249 250 252 251 251 252 253 253 254 254 253 253 255 256 256 257 258 258 259 258 257 257 258 258 259 259 260 261 262 263 264 265 267 269 271 272 271 270 270 270 271 272 274
269 268 268 268 268 267 265 262 260 258 256 253 250 249 248 246 245 244 244 244 243 243 243 243 243 244 246 247 249 249 248 247 248 249 249 247 246 248 249 250 250 250 250 250 249 249 250 253 253 252 252 253 253 254 254 253 254 257 258 257 256 258 258 258 257 257 257 258 259 259 259 259 259 260 261 263 264 267 269 270 271 270 270 270 270 272 273 274
268 267 267 267 265 265 264 262 260 258 255 251 249 249 248 248 248 247 247 246 245 244 243 242 242 244 245 248 250 251 251 251 250 249 248 247 248 249 250 251 251 251 251 251 251 250 251 254 256 254 253 252 252 253 255 256 255 256 258 257 255 255 256 256 257 258 258 258 259 260 260 259 258 259 260 262 265 267 269 270 270 270 270 270 271 273 273 274
266 266 266 265 263 263 263 262 261 257 254 252 250 249 249 250 250 249 249 248 247 245 244 243 242 242 243 245 247 249 252 253 252 250 248 247 248 249 250 253 254 251 249 249 249 250 250 252 254 254 252 252 252 253 256 257 256 256 258 258 257 256 256 257 259 260 260 260 259 259 260 260 259 260 261 263 266 267 267 268 268 268 269 270 272 274 274 275
265 265 264 263 263 263 262 261 259 257 254 252 251 250 250 251 251 251 250 249 248 247 246 245 244 243 243 244 245 247 249 252 253 254 253 251 251 250 250 252 254 253 251 248 246 247 249 249 251 254 254 255 255 255 255 256 257 258 259 261 261 260 259 260 260 260 260 260 260 260 260 261 261 262 263 264 265 265 265 266 266 267 268 270 272 273 274 276
264 264 263 262 262 261 261 259 257 255 253 252 251 251 250 250 250 251 251 250 249 249 248 247 246 246 245 246 246 248 250 252 255 256 258 258 257 257 256 254 254 254 253 252 249 249 250 250 251 254 256 257 258 257 257 257 258 260 261 262 262 261 260 260 259 259 259 260 260 260 261 261 262 263 264 264 264 265 265 266 267 268 269 271 272 272 273 274
264 263 263 262 260 260 259 258 256 254 253 252 250 250 250 250 250 251 252 251 251 250 249 249 248 248 248 248 249 250 252 254 256 257 259 260 260 261 261 261 259 257 255 254 252 251 251 252 253 256 258 259 260 260 259 259 259 259 260 261 262 261 261 260 260 260 260 261 261 261 261 262 263 263 264 265 265 266 267 267 268 269 270 270 270 271 271 272
263 262 261 260 259 257 257 256 254 252 251 251 249 248 248 249 249 250 251 250 249 249 248 247 247 248 250 251 251 251 251 251 254 255 257 258 259 261 263 263 263 262 261 260 258 256 255 254 254 256 257 259 260 261 261 261 260 259 259 260 261 262 262 261 261 261 262 262 263 263 263 263 264 264 264 265 266 266 267 268 268 268 269 269 268 268 268 269
261 260 259 258 257 256 255 255 254 251 250 249 248 247 246 246 248 249 250 250 249 249 248 248 247 248 251 252 252 252 252 251 252 253 253 254 256 258 261 263 264 265 265 266 266 265 262 260 257 256 257 258 259 261 262 262 261 260 260 260 261 261 262 262 262 262 262 262 263 263 263 264 264 264 264 264 265 265 266 266 266 266 266 267 267 267 267 267
259 258 257 256 255 253 253 253 252 251 248 247 246 246 245 245 246 247 249 249 250 249 249 250 249 249 250 252 252 252 252 252 253 253 252 252 254 256 258 260 262 265 267 268 268 268 268 265 262 260 258 257 258 260 262 262 263 262 261 259 259 259 260 260 260 261 261 262 262 261 261 262 263 264 265 264 264 264 263 263 263 264 264 265 266 266 267 267
258 256 255 254 252 251 251 251 250 249 248 246 245 245 245 244 245 246 248 249 248 248 248 249 249 248 248 249 250 250 250 249 250 253 253 251 252 254 256 258 261 263 265 266 266 266 265 265 263 262 261 260 259 260 260 261 261 261 261 261 260 259 258 258 258 259 260 261 262 263 263 263 263 263 264 264 264 264 264 264 264 264 264 265 265 266 267 267
256 255 253 252 250 250 251 250 249 248 247 246 244 243 243 244 245 247 249 249 249 250 250 251 250 249 248 248 249 250 251 249 248 251 253 251 249 249 251 253 256 258 259 260 260 261 261 260 260 261 262 262 262 261 260 260 260 261 262 262 262 261 260 258 257 257 257 258 259 262 263 264 264 264 264 264 264 265 265 266 266 266 266 266 266 267 267 268
256 253 252 251 251 250 251 251 250 249 248 247 245 243 243 244 244 245 246 247 248 248 249 250 249 247 246 246 247 248 251 251 249 249 251 252 251 248 247 247 248 251 252 253 254 255 256 257 258 258 259 260 261 262 261 261 262 261 261 261 261 260 260 259 258 258 258 257 258 259 261 263 264 266 267 267 266 266 265 265 266 266 267 267 267 267 268 268
256 253 252 250 249 248 249 250 249 248 248 246 245 244 244 244 244 244 244 245 246 246 247 248 247 245 244 243 243 244 246 249 249 248 249 250 250 249 247 246 246 247 249 250 252 253 255 257 257 258 258 259 260 262 263 263 263 263 262 261 261 261 261 261 261 261 261 261 261 261 261 262 263 264 265 266 267 267 267 266 266 265 265 266 266 266 267 267
257 253 250 248 246 244 245 246 246 245 245 244 243 242 242 243 243 243 244 244 244 245 246 247 247 245 243 243 242 242 243 245 247 247 248 249 250 250 249 249 248 249 250 251 252 254 256 257 258 258 259 260 260 261 261 261 262 263 264 264 264 264 265 265 265 264 264 263 263 263 263 263 263 263 263 264 265 266 267 268 268 267 266 265 265 264 264 263
Height
10636 10638 10640 10643 10646 10648 10651 10654 10656 10658 10661 10663 10665 10668 10670 10673 10675 10677 10679 10682 10684 10686 10688 10690 10693 10695 10698 10700 10702 10704 10706 10707 10708 10711 10712 10713 10716 10719 10721 10720 10724 10727 10728 10730 10732 10734 10735 10736 10739 10741 10742 10743 10745 10746 10749 10750 10754 10758 10759 10760 10757 10753 10752 10751 10747 10749 10758 10766 10768 10765 10759 10755 10758 10761 10758 10755 10754 10754 10758 10767 10773 10770 10770 10769 10770 10771 10770 10770
10627 10630 10632 10635 10638 10640 10643 10646 10649 10651 10653 10656 10658 10661 10663 10666 10668 10670 10672 10674 10676 10678 10681 10684 10687 10689 10691 10694 10695 10697 10698 10699 10701 10704 10704 10706 10709 10710 10712 10713 10715 10718 10720 10723 10724 10725 10727 10728 10731 10733 10734 10734 10736 10739 10740 10742 10746 10749 10750 10751 10747 10743 10745 10742 10739 10744 10752 10757 10760 10758 10752 10746 10746 10749 10747 10742 10743 10750 10753 10759 10765 10763 10762 10762 10761 10761 10760 10760
10620 10622 10624 10627 10630 10632 10635 10638 10641 10644 10646 10648 10651 10653 10656 10658 10661 10663 10665 10667 10669 10671 10674 10677 10680 10682 10685 10687 10688 10689 10690 10692 10695 10697 10698 10700 10702 10703 10705 10706 10708 10710 10712 10715 10716 10717 10719 10721 10723 10724 10726 10726 10728 10731 10732 10735 10737 10739 10743 10741 10736 10737 10738 10733 10733 10740 10745 10748 10751 10749 10743 10737 10734 10737 10738 10734 10735 10742 10748 10752 10755 10752 10751 10753 10753 10752 10751 10751
10612 10614 10617 10619 10622 10624 10627 10630 10633 10636 10638 10641 10643 10646 10648 10651 10653 10655 10657 10659 10661 10664 10667 10670 10672 10675 10677 10679 10681 10681 10682 10685 10688 10690 10692 10693 10696 10697 10698 10700 10701 10703 10705 10706 10707 10709 10711 10713 10715 10717 10718 10718 10720 10723 10724 10726 10728 10731 10735 10731 10727 10731 10730 10723 10726 10734 10736 10738 10742 10740 10732 10726 10727 10728 10731 10731 10728 10731 10739 10742 10743 10742 10740 10741 10742 10742 10742 10740
10605 10607 10609 10611 10614 10617 10619 10622 10625 10628 10631 10633 10636 10638 10641 10644 10646 10648 10649 10651 10654 10657 10660 10663 10665 10668 10670 10672 10673 10673 10675 10678 10681 10683 10686 10687 10688 10690 10691 10693 10694 10696 10697 10698 10699 10701 10704 10706 10707 10709 10710 10710 10712 10715 10715 10718 10721 10724 10725 10721 10721 10724 10720 10715 10719 10727 10728 10730 10732 10726 10719 10719 10723 10723 10725 10726 10722 10723 10729 10732 10732 10731 10729 10728 10730 10732 10733 10730
10598 10600 10602 10604 10607 10609 10612 10615 10618 10620 10623 10625 10628 10631 10633 10636 10638 10640 10642 10644 10647 10650 10654 10656 10658 10660 10662 10664 10665 10666 10667 10671 10674 10677 10679 10680 10681 10683 10684 10686 10687 10689 10690 10691 10692 10694 10696 10698 10700 10701 10701 10701 10704 10706 10707 10711 10714 10717 10716 10714 10713 10714 10711 10708 10711 10718 10721 10722 10718 10711 10709 10715 10717 10716 10719 10720 10717 10716 10718 10721 10720 10718 10718 10718 10719 10722 10722 10719
10591 10593 10595 10597 10600 10602 10605 10608 10610 10613 10616 10618 10621 10623 10626 10629 10631 10633 10634 10637 10640 10644 10647 10649 10651 10653 10655 10656 10657 10658 10660 10664 10668 10671 10672 10674 10675 10676 10677 10679 10680 10681 10683 10684 10686 10687 10689 10690 10691 10691 10692 10694 10697 10698 10700 10705 10708 10708 10706 10704 10704 10705 10704 10700 10704 10709 10711 10711 10706 10702 10703 10707 10707 10706 10712 10716 10713 10709 10707 10709 10707 10705 10710 10710 10710 10712 10711 10709
10584 10586 10588 10591 10593 10595 10598 10601 10603 10606 10608 10611 10614 10616 10619 10621 10624 10626 10628 10631 10634 10637 10640 10642 10644 10646 10647 10649 10649 10650 10653 10658 10661 10663 10665 10666 10667 10669 10670 10671 10673 10675 10676 10677 10678 10680 10681 10681 10682 10684 10686 10688 10690 10692 10694 10697 10700 10698 10695 10694 10696 10698 10696 10694 10697 10700 10700 10701 10697 10695 10695 10696 10697 10699 10706 10709 10706 10702 10699 10698 10694 10695 10702 10703 10702 10702 10700 10700
10578 10580 10582 10584 10586 10589 10591 10594 10596 10599 10601 10604 10607 10610 10612 10615 10617 10619 10621 10624 10628 10631 10633 10636 10637 10639 10640 10641 10642 10644 10647 10651 10653 10656 10658 10659 10660 10661 10663 10664 10666 10668 10669 10670 10671 10672 10673 10674 10676 10677 10680 10681 10684 10685 10686 10687 10689 10688 10687 10688 10689 10689 10688 10688 10690 10690 10691 10692 10689 10686 10685 10687 10690 10691 10697 10700 10699 10696 10691 10687 10685 10688 10694 10696 10694 10692 10690 10690
10572 10574 10576 10578 10580 10583 10585 10588 10590 10592 10595 10598 10600 10603 10606 10608 10610 10613 10615 10618 10622 10625 10627 10629 10630 10632 10633 10634 10636 10637 10641 10644 10646 10648 10651 10652 10653 10654 10656 10657 10658 10660 10661 10663 10663 10665 10666 10668 10669 10671 10673 10675 10676 10677 10678 10678 10680 10681 10680 10681 10681 10681 10680 10681 10682 10682 10683 10684 10680 10677 10676 10679 10680 10681 10688 10694 10693 10687 10681 10678 10679 10681 10685 10687 10686 10684 10681 10681
10566 10568 10570 10572 10574 10577 10579 10581 10583 10586 10588 10591 10594 10597 10599 10602 10604 10607 10609 10613 10616 10618 10620 10622 10624 10625 10626 10628 10630 10630 10634 10638 10639 10640 10643 10645 10646 10647 10648 10650 10651 10653 10654 10655 10656 10658 10660 10661 10663 10665 10666 10667 10667 10668 10671 10671 10671 10672 10673 10673 10673 10673 10672 10674 10677 10677 10677 10675 10673 10670 10669 10669 10669 10672 10682 10689 10685 10676 10672 10673 10673 10674 10676 10678 10678 10676 10674 10674
10561 10562 10564 10566 10568 10570 10572 10575 10577 10580 10582 10585 10588 10591 10593 10596 10598 10601 10604 10606 10609 10612 10614 10616 10617 10618 10620 10622 10623 10623 10628 10632 10631 10633 10635 10637 10638 10640 10641 10642 10643 10645 10646 10648 10649 10650 10652 10654 10656 10658 10658 10659 10659 10661 10662 10663 10663 10664 10666 10667 10665 10665 10665 10668 10672 10670 10669 10668 10666 10665 10661 10659 10660 10667 10678 10681 10674 10666 10665 10667 10666 10666 10668 10669 10669 10669 10668 10668
10555 10556 10558 10560 10562 10564 10566 10569 10571 10574 10577 10579 10582 10585 10588 10590 10593 10595 10598 10600 10603 10606 10608 10609 10610 10612 10614 10616 10617 10617 10620 10624 10625 10626 10627 10629 10631 10632 10633 10634 10636 10637 10639 10640 10641 10643 10645 10647 10649 10649 10650 10650 10651 10653 10654 10655 10657 10657 10658 10659 10657 10657 10659 10663 10664 10662 10661 10662 10661 10659 10653 10652 10656 10663 10673 10672 10662 10657 10660 10661 10659 10658 10660 10661 10661 10660 10660 10661
10549 10551 10552 10554 10556 10558 10560 10563 10565 10568 10571 10573 10576 10579 10582 10585 10587 10589 10592 10594 10597 10600 10602 10603 10603 10605 10608 10610 10611 10611 10613 10616 10618 10618 10619 10621 10623 10624 10626 10627 10628 10630 10631 10633 10634 10635 10638 10639 10640 10641 10641 10642 10644 10646 10646 10647 10649 10649 10650 10651 10649 10652 10654 10655 10655 10654 10655 10656 10655 10651 10645 10647 10653 10660 10666 10662 10653 10650 10654 10655 10654 10652 10653 10654 10653 10652 10653 10654
10544 10545 10547 10549 10550 10552 10554 10557 10560 10562 10565 10568 10570 10573 10576 10579 10582 10584 10586 10589 10592 10594 10595 10596 10597 10599 10602 10604 10604 10605 10606 10608 10610 10611 10612 10614 10616 10617 10618 10620 10621 10623 10624 10625 10626 10628 10630 10630 10632 10633 10633 10635 10637 10638 10639 10639 10640 10642 10643 10644 10644 10647 10647 10646 10647 10649 10650 10649 10647 10643 10639 10642 10649 10656 10658 10653 10646 10645 10649 10650 10648 10647 10646 10646 10647 10647 10648 10648
10539 10540 10541 10543 10545 10546 10549 10551 10554 10557 10559 10562 10565 10568 10571 10574 10576 10578 10581 10583 10586 10588 10589 10590 10591 10594 10597 10597 10598 10598 10599 10600 10602 10604 10606 10607 10608 10610 10611 10612 10614 10615 10617 10618 10619 10620 10622 10623 10625 10626 10626 10628 10629 10630 10632 10632 10633 10636 10637 10637 10638 10639 10639 10638 10641 10642 10643 10643 10640 10635 10634 10638 10645 10649 10651 10647 10641 10640 10643 10644 10642 10641 10640 10640 10640 10641 10643 10644
10534 10535 10536 10538 10539 10541 10543 10546 10548 10551 10554 10557 10560 10563 10565 10568 10570 10573 10575 10578 10580 10582 10583 10584 10586 10589 10591 10591 10592 10592 10592 10594 10596 10598 10599 10600 10601 10603 10604 10605 10607 10608 10609 10610 10612 10613 10615 10616 10618 10619 10619 10620 10622 10623 10625 10627 10629 10630 10628 10628 10630 10631 10632 10633 10634 10635 10637 10638 10636 10630 10629 10634 10638 10642 10644 10643 10638 10635 10638 10640 10637 10635 10634 10634 10634 10634 10637 10639
10529 10530 10531 10532 10534 10536 10538 10540 10543 10546 10549 10551 10554 10557 10560 10562 10565 10567 10569 10571 10574 10576 10578 10579 10581 10584 10585 10585 10585 10584 10586 10589 10590 10591 10592 10593 10595 10596 10597 10599 10600 10601 10603 10604 10605 10607 10608 10609 10611 10612 10613 10614 10615 10617 10620 10622 10623 10620 10618 10620 10623 10625 10627 10628 10628 10630 10631 10633 10630 10626 10625 10628 10631 10635 10638 10639 10636 10633 10634 10635 10633 10631 10630 10629 10629 10630 10633 10635
10524 10525 10526 10527 10529 10531 10533 10535 10538 10541 10543 10546 10549 10551 10554 10557 10560 10562 10563 10566 10570 10572 10573 10573 10576 10579 10579 10579 10578 10578 10581 10583 10584 10585 10586 10587 10588 10590 10591 10592 10594 10595 10597 10598 10599 10600 10601 10602 10604 10606 10607 10608 10610 10612 10614 10615 10614 10611 10611 10615 10618 10620 10622 10623 10623 10625 10626 10626 10624 10621 10621 10623 10625 10628 10632 10634 10633 10631 10629 10629 10629 10628 10626 10625 10624 10627 10631 10632
10520 10521 10522 10523 10524 10526 10528 10530 10533 10535 10538 10541 10543 10546 10549 10552 10555 10556 10558 10561 10564 10566 10567 10568 10571 10573 10572 10573 10571 10573 10577 10577 10578 10580 10580 10581 10583 10584 10585 10586 10588 10590 10591 10592 10592 10593 10595 10597 10599 10600 10601 10603 10605 10606 10608 10608 10607 10605 10606 10610 10611 10613 10617 10617 10618 10620 10621 10621 10619 10615 10614 10617 10620 10621 10625 10630 10630 10627 10626 10625 10624 10623 10623 10622 10622 10623 10627 10628
10516 10517 10517 10518 10519 10521 10523 10525 10528 10530 10533 10536 10538 10541 10544 10547 10549 10550 10552 10556 10558 10560 10560 10562 10566 10566 10566 10567 10565 10568 10573 10572 10573 10575 10575 10577 10578 10579 10579 10580 10583 10584 10585 10586 10586 10588 10590 10592 10594 10595 10596 10597 10598 10600 10602 10603 10601 10599 10599 10602 10604 10608 10611 10612 10613 10616 10617 10618 10616 10612 10608 10610 10613 10615 10618 10623 10625 10624 10623 10621 10620 10620 10620 10620 10621 10621 10622 10624
10512 10512 10513 10514 10515 10516 10518 10521 10523 10526 10528 10530 10533 10535 10538 10541 10542 10543 10548 10550 10552 10554 10554 10556 10559 10559 10560 10561 10559 10563 10567 10567 10568 10569 10570 10572 10574 10574 10574 10576 10578 10579 10580 10580 10581 10583 10585 10587 10589 10590 10590 10591 10592 10594 10597 10597 10596 10594 10593 10595 10598 10602 10605 10607 10609 10611 10613 10614 10613 10610 10605 10603 10605 10608 10612 10617 10619 10619 10619 10618 10617 10617 10617 10617 10618 10618 10618 10619
10508 10508 10509 10509 10510 10512 10514 10516 10519 10521 10523 10525 10527 10530 10532 10535 10536 10538 10542 10544 10545 10548 10547 10549 10553 10553 10553 10554 10555 10558 10561 10562 10562 10563 10566 10568 10569 10568 10569 10571 10574 10574 10574 10574 10576 10579 10581 10583 10584 10584 10584 10586 10587 10589 10590 10590 10591 10590 10589 10588 10591 10595 10599 10601 10604 10605 10608 10609 10608 10607 10602 10598 10597 10601 10607 10612 10613 10614 10615 10614 10613 10614 10615 10615 10614 10613 10613 10615
10503 10504 10504 10505 10506 10508 10509 10512 10514 10516 10518 10519 10521 10524 10526 10528 10530 10533 10536 10537 10539 10541 10541 10542 10545 10545 10546 10550 10552 10551 10553 10557 10557 10558 10561 10563 10563 10562 10564 10568 10568 10567 10567 10569 10572 10574 10577 10578 10579 10578 10578 10581 10582 10583 10583 10584 10586 10586 10585 10583 10584 10589 10593 10596 10599 10601 10603 10603 10602 10601 10598 10594 10593 10596 10602 10606 10608 10609 10611 10610 10608 10611 10613 10613 10611 10609 10609 10611
10499 10500 10500 10501 10502 10503 10505 10507 10509 10511 10512 10514 10516 10519 10520 10522 10526 10528 10530 10530 10532 10535 10535 10535 10537 10539 10542 10547 10546 10544 10547 10551 10552 10554 10556 10558 10557 10556 10559 10562 10561 10560 10562 10566 10568 10570 10572 10574 10574 10573 10572 10574 10576 10577 10578 10580 10581 10581 10580 10578 10579 10584 10588 10590 10594 10595 10596 10596 10595 10595 10593 10591 10590 10592 10595 10598 10603 10606 10607 10606 10605 10607 10609 10609 10608 10607 10606 10607
10495 10495 10496 10497 10497 10499 10501 10502 10504 10506 10507 10509 10511 10513 10515 10518 10521 10522 10524 10524 10525 10529 10528 10528 10530 10533 10537 10541 10540 10540 10542 10543 10546 10550 10549 10550 10550 10551 10555 10555 10554 10556 10560 10563 10563 10564 10567 10569 10569 10567 10566 10568 10570 10572 10574 10575 10575 10575 10574 10573 10574 10579 10582 10585 10588 10589 10590 10590 10590 10590 10589 10587 10586 10587 10587 10590 10596 10601 10603 10603 10603 10604 10605 10604 10604 10605 10604 10602
10491 10491 10491 10492 10493 10495 10496 10497 10500 10501 10502 10504 10506 10507 10510 10514 10515 10516 10519 10517 10518 10521 10521 10522 10524 10526 10532 10535 10533 10534 10536 10538 10541 10542 10540 10543 10546 10548 10549 10548 10549 10554 10557 10558 10557 10558 10560 10563 10563 10561 10561 10563 10564 10566 10568 10570 10570 10569 10568 10568 10570 10575 10577 10579 10581 10582 10583 10584 10585 10585 10585 10583 10580 10579 10580 10583 10588 10594 10598 10599 10601 10602 10601 10600 10601 10601 10599 10598
10487 10487 10487 10487 10488 10490 10491 10493 10495 10495 10497 10499 10499 10503 10506 10508 10509 10511 10513 10511 10512 10515 10515 10516 10517 10519 10526 10528 10525 10528 10531 10533 10535 10533 10534 10539 10542 10542 10541 10542 10546 10550 10552 10552 10551 10552 10555 10557 10558 10557 10557 10558 10557 10560 10564 10565 10565 10564 10564 10564 10566 10569 10570 10572 10574 10575 10578 10579 10580 10581 10581 10579 10577 10574 10574 10577 10580 10585 10592 10595 10597 10597 10596 10596 10596 10596 10595 10594
10483 10483 10483 10483 10483 10485 10487 10488 10489 10490 10492 10494 10495 10499 10502 10502 10504 10506 10507 10506 10506 10509 10509 10510 10511 10513 10519 10520 10517 10521 10525 10527 10528 10529 10529 10532 10535 10535 10534 10538 10542 10544 10547 10546 10546 10547 10548 10551 10554 10553 10552 10551 10552 10556 10559 10560 10559 10560 10561 10560 10560 10562 10562 10565 10568 10570 10573 10574 10574 10575 10574 10574 10574 10571 10569 10571 10573 10577 10584 10590 10591 10591 10591 10591 10591 10591 10591 10590
10479 10478 10478 10478 10478 10480 10481 10482 10484 10485 10486 10489 10492 10494 10495 10497 10499 10501 10501 10500 10500 10503 10503 10503 10505 10507 10511 10512 10511 10515 10519 10521 10523 10525 10524 10525 10528 10528 10529 10533 10536 10538 10541 10541 10540 10541 10543 10547 10550 10548 10546 10545 10548 10552 10553 10554 10554 10555 10556 10555 10556 10556 10555 10558 10562 10565 10567 10569 10569 10569 10569 10569 10570 10568 10565 10566 10567 10571 10578 10583 10584 10585 10585 10585 10585 10585 10586 10586
10475 10474 10474 10474 10473 10474 10476 10476 10478 10480 10481 10484 10486 10488 10490 10492 10494 10495 10494 10493 10495 10497 10497 10497 10500 10503 10505 10505 10505 10509 10513 10515 10518 10520 10519 10519 10521 10522 10524 10528 10529 10532 10535 10535 10535 10536 10540 10543 10544 10543 10542 10541 10543 10546 10547 10548 10549 10549 10550 10551 10552 10551 10550 10552 10556 10558 10561 10562 10562 10562 10563 10566 10566 10563 10561 10560 10562 10567 10573 10576 10578 10579 10579 10580 10579 10579 10580 10581
10471 10470 10469 10469 10468 10469 10471 10471 10473 10475 10477 10479 10481 10483 10484 10487 10489 10487 10486 10487 10489 10491 10491 10492 10495 10496 10498 10500 10500 10503 10507 10509 10512 10514 10514 10514 10515 10517 10520 10522 10523 10526 10529 10530 10530 10531 10535 10538 10538 10538 10537 10536 10538 10540 10542 10543 10543 10544 10546 10547 10547 10547 10546 10547 10549 10551 10553 10554 10555 10557 10558 10560 10561 10560 10556 10555 10556 10561 10566 10570 10573 10575 10575 10575 10574 10574 10574 10574
10466 10465 10465 10465 10463 10465 10467 10467 10468 10470 10472 10473 10475 10477 10479 10482 10481 10478 10479 10482 10483 10484 10486 10487 10489 10491 10493 10495 10495 10497 10501 10503 10505 10509 10510 10508 10509 10512 10514 10516 10518 10520 10522 10524 10525 10527 10530 10533 10534 10533 10532 10533 10534 10535 10538 10538 10537 10538 10540 10542 10542 10542 10542 10543 10543 10545 10546 10547 10548 10551 10553 10554 10555 10555 10553 10552 10552 10553 10559 10564 10567 10569 10570 10570 10570 10569 10568 10568
10461 10460 10460 10459 10459 10460 10462 10462 10463 10465 10466 10468 10469 10471 10474 10475 10472 10470 10474 10476 10476 10479 10481 10482 10484 10486 10488 10490 10490 10493 10496 10496 10499 10503 10505 10504 10505 10507 10508 10510 10513 10513 10515 10519 10521 10523 10525 10526 10528 10528 10527 10528 10529 10530 10532 10532 10531 10532 10535 10536 10536 10536 10537 10537 10539 10540 10540 10542 10542 10545 10548 10548 10548 10549 10549 10549 10548 10548 10552 10557 10560 10562 10563 10564 10564 10564 10563 10563
10456 10455 10454 10454 10454 10456 10457 10458 10458 10459 10461 10462 10463 10466 10467 10466 10463 10463 10467 10469 10470 10473 10476 10478 10480 10482 10484 10486 10486 10487 10489 10490 10493 10497 10500 10501 10501 10502 10503 10505 10507 10507 10510 10514 10516 10518 10521 10521 10522 10523 10523 10522 10523 10524 10526 10526 10526 10527 10528 10528 10529 10531 10532 10532 10534 10535 10535 10537 10537 10538 10541 10541 10541 10543 10544 10544 10544 10544 10547 10550 10554 10555 10555 10555 10555 10556 10556 10557
10451 10449 10448 10448 10450 10452 10453 10453 10453 10454 10456 10457 10459 10459 10459 10457 10456 10457 10460 10463 10464 10467 10471 10473 10474 10476 10478 10479 10480 10480 10481 10483 10486 10491 10495 10497 10497 10497 10497 10499 10500 10501 10504 10508 10511 10515 10517 10515 10515 10517 10517 10516 10517 10519 10521 10520 10520 10520 10519 10520 10523 10527 10528 10528 10530 10531 10531 10531 10531 10531 10534 10535 10535 10537 10537 10539 10540 10541 10542 10545 10548 10549 10547 10546 10546 10546 10547 10549
10445 10443 10441 10442 10445 10447 10448 10448 10448 10449 10451 10453 10453 10452 10451 10450 10450 10450 10453 10455 10458 10461 10464 10465 10467 10468 10470 10472 10473 10473 10474 10477 10480 10484 10489 10491 10492 10491 10490 10492 10493 10494 10498 10503 10508 10512 10511 10508 10508 10511 10511 10512 10513 10514 10514 10513 10512 10512 10512 10515 10519 10521 10523 10524 10524 10525 10525 10525 10524 10525 10527 10529 10530 10530 10531 10533 10535 10536 10537 10540 10542 10543 10541 10539 10538 10538 10539 10541
10439 10437 10435 10437 10440 10440 10442 10443 10444 10444 10446 10448 10447 10445 10444 10443 10442 10443 10445 10448 10451 10454 10456 10458 10461 10462 10463 10465 10467 10467 10470 10472 10473 10478 10482 10484 10486 10485 10484 10485 10484 10487 10495 10501 10504 10507 10505 10501 10502 10506 10507 10507 10508 10507 10504 10504 10505 10505 10507 10512 10515 10516 10518 10519 10517 10518 10519 10518 10518 10519 10521 10524 10525 10524 10524 10525 10527 10530 10532 10534 10536 10535 10534 10532 10531 10531 10533 10534
10431 10429 10430 10432 10434 10434 10435 10437 10438 10439 10441 10441 10440 10437 10437 10436 10436 10437 10439 10441 10445 10448 10451 10454 10456 10458 10459 10460 10461 10462 10464 10466 10469 10473 10475 10477 10480 10479 10478 10477 10477 10483 10492 10497 10499 10501 10499 10496 10497 10501 10502 10501 10501 10497 10494 10497 10502 10502 10502 10506 10509 10511 10513 10512 10510 10512 10513 10512 10512 10512 10515 10518 10518 10516 10517 10518 10521 10525 10526 10527 10528 10527 10526 10524 10523 10525 10528 10529
10422 10422 10424 10425 10426 10427 10429 10431 10433 10434 10434 10433 10432 10431 10430 10430 10431 10432 10433 10435 10439 10442 10444 10447 10450 10452 10453 10454 10455 10455 10457 10459 10464 10467 10467 10470 10473 10472 10471 10471 10474 10482 10488 10490 10493 10495 10495 10492 10491 10494 10495 10493 10493 10490 10488 10493 10498 10496 10494 10497 10503 10506 10506 10504 10504 10506 10507 10507 10506 10506 10508 10510 10510 10509 10511 10513 10516 10519 10520 10520 10520 10519 10518 10516 10516 10518 10521 10523
10414 10415 10417 10417 10419 10420 10422 10425 10426 10427 10427 10426 10425 10425 10424 10424 10425 10427 10428 10430 10433 10435 10437 10439 10443 10445 10446 10447 10448 10449 10449 10452 10455 10457 10459 10464 10467 10466 10466 10466 10470 10477 10482 10484 10486 10488 10489 10487 10484 10484 10485 10485 10486 10486 10485 10487 10489 10489 10488 10489 10495 10500 10499 10499 10500 10501 10501 10500 10500 10500 10500 10500 10501 10503 10505 10508 10511 10513 10513 10512 10511 10511 10511 10510 10510 10510 10511 10515
10406 10407 10408 10409 10412 10413 10415 10417 10418 10419 10420 10419 10419 10419 10419 10419 10420 10420 10422 10424 10426 10429 10431 10433 10436 10438 10439 10440 10442 10443 10444 10445 10446 10448 10451 10457 10459 10458 10460 10462 10465 10469 10473 10476 10480 10481 10481 10481 10478 10476 10477 10479 10480 10480 10480 10480 10482 10483 10483 10484 10488 10492 10494 10494 10494 10494 10493 10491 10491 10493 10492 10491 10493 10496 10499 10503 10504 10505 10505 10505 10504 10504 10504 10505 10504 10503 10502 10506
10397 10398 10399 10402 10405 10406 10407 10408 10409 10411 10412 10412 10413 10414 10413 10414 10413 10412 10415 10418 10420 10423 10427 10428 10430 10432 10433 10435 10437 10439 10441 10442 10441 10443 10445 10449 10451 10450 10452 10456 10459 10461 10464 10468 10472 10474 10473 10474 10474 10472 10471 10472 10472 10471 10472 10475 10477 10477 10477 10478 10480 10482 10485 10487 10486 10486 10484 10482 10484 10485 10484 10484 10486 10488 10492 10494 10495 10496 10497 10498 10497 10497 10498 10499 10499 10496 10495 10497
10388 10390 10391 10394 10397 10399 10399 10398 10399 10402 10404 10405 10407 10407 10407 10408 10407 10406 10409 10412 10414 10418 10422 10423 10425 10427 10428 10431 10434 10436 10439 10438 10436 10437 10441 10443 10443 10441 10442 10446 10449 10452 10456 10459 10463 10466 10466 10468 10470 10468 10466 10465 10463 10460 10463 10468 10471 10470 10470 10471 10470 10472 10476 10478 10477 10478 10475 10474 10476 10477 10476 10477 10479 10481 10484 10486 10487 10488 10489 10490 10490 10490 10491 10492 10491 10490 10489 10489
10378 10381 10383 10385 10387 10390 10389 10386 10389 10395 10396 10397 10400 10401 10402 10402 10400 10400 10401 10404 10408 10413 10416 10417 10420 10422 10424 10428 10430 10430 10432 10432 10429 10432 10435 10436 10436 10435 10435 10437 10438 10442 10447 10450 10453 10457 10459 10461 10465 10463 10460 10458 10454 10451 10453 10457 10460 10462 10462 10463 10462 10463 10467 10469 10469 10469 10467 10466 10468 10467 10467 10469 10471 10473 10476 10478 10479 10480 10481 10482 10482 10482 10482 10482 10483 10483 10482 10482
10368 10369 10372 10374 10377 10380 10378 10376 10380 10386 10388 10389 10391 10392 10394 10395 10394 10393 10394 10397 10403 10407 10409 10412 10416 10419 10421 10424 10424 10424 10425 10425 10424 10426 10428 10429 10430 10430 10430 10429 10430 10433 10437 10441 10443 10446 10448 10451 10454 10453 10451 10450 10447 10444 10445 10447 10449 10451 10454 10455 10454 10455 10458 10459 10460 10459 10458 10459 10459 10457 10458 10459 10460 10463 10467 10470 10472 10472 10472 10472 10473 10473 10473 10473 10474 10475 10475 10475
10357 10358 10361 10364 10367 10369 10367 10367 10371 10375 10378 10381 10382 10383 10386 10387 10387 10386 10388 10393 10398 10402 10403 10406 10411 10415 10418 10419 10418 10418 10419 10420 10419 10419 10420 10423 10425 10426 10425 10424 10424 10426 10430 10433 10435 10436 10438 10439 10440 10441 10440 10440 10440 10439 10438 10439 10439 10440 10442 10444 10446 10448 10449 10450 10451 10449 10449 10450 10448 10447 10450 10451 10450 10453 10457 10459 10462 10462 10462 10463 10463 10464 10465 10465 10465 10466 10466 10467
10347 10348 10350 10353 10356 10356 10356 10358 10362 10365 10369 10371 10373 10377 10378 10379 10379 10380 10383 10388 10393 10394 10396 10400 10405 10410 10412 10412 10412 10411 10412 10413 10413 10411 10412 10417 10420 10420 10420 10419 10420 10422 10424 10426 10427 10428 10429 10429 10429 10430 10431 10431 10432 10432 10431 10431 10430 10430 10431 10433 10436 10439 10440 10441 10442 10441 10441 10441 10437 10436 10440 10442 10442 10445 10447 10449 10450 10451 10452 10454 10454 10455 10456 10457 10457 10457 10458 10459
10337 10338 10340 10342 10345 10347 10348 10351 10354 10356 10359 10362 10366 10369 10370 10371 10374 10376 10379 10384 10387 10388 10389 10393 10400 10404 10405 10406 10406 10405 10405 10406 10407 10404 10403 10407 10412 10414 10414 10414 10415 10416 10417 10419 10420 10421 10421 10420 10421 10423 10423 10423 10424 10423 10423 10423 10424 10424 10424 10424 10426 10428 10429 10430 10432 10433 10434 10434 10431 10429 10430 10431 10432 10435 10438 10439 10441 10441 10442 10444 10445 10446 10447 10449 10450 10450 10450 10451
10328 10329 10331 10334 10338 10340 10341 10343 10346 10349 10351 10354 10358 10362 10363 10365 10368 10371 10373 10376 10379 10381 10382 10386 10392 10397 10397 10398 10399 10398 10397 10398 10399 10398 10396 10397 10402 10405 10406 10408 10409 10409 10410 10412 10413 10413 10412 10412 10415 10416 10415 10415 10415 10415 10416 10417 10418 10417 10416 10416 10417 10418 10418 10419 10421 10423 10424 10425 10424 10424 10424 10423 10424 10426 10428 10429 10431 10432 10433 10434 10436 10437 10438 10440 10441 10442 10443 10443
10320 10322 10324 10327 10331 10333 10333 10335 10338 10341 10343 10346 10350 10354 10356 10358 10361 10364 10367 10368 10370 10373 10375 10378 10383 10387 10388 10389 10390 10391 10390 10389 10390 10390 10389 10388 10390 10394 10397 10401 10403 10403 10404 10405 10406 10406 10405 10405 10407 10408 10408 10408 10408 10408 10410 10411 10410 10409 10408 10409 10409 10408 10409 10411 10413 10415 10416 10415 10416 10417 10417 10416 10417 10418 10419 10419 10420 10421 10421 10423 10425 10427 10429 10431 10432 10433 10435 10435
10314 10315 10318 10320 10322 10324 10324 10325 10328 10331 10333 10336 10342 10346 10349 10350 10353 10356 10358 10360 10362 10365 10368 10370 10373 10377 10379 10380 10380 10382 10383 10381 10380 10380 10381 10380 10381 10384 10389 10393 10397 10398 10399 10400 10401 10400 10400 10399 10399 10400 10401 10401 10401 10403 10404 10404 10403 10402 10402 10403 10402 10401 10402 10404 10405 10406 10407 10406 10407 10408 10408 10409 10409 10410 10410 10411 10413 10412 10411 10412 10413 10415 10419 10421 10422 10424 10426 10427